カタログに戻る

DELTA 1 DEB

運用中LEO
NORAD 10221·DEBRIS·🇺🇸 United States

打ち上げ Jul 14, 1977 から Cape Canaveral Space Force Station

Loading…

次のパス (今後24時間)

TLE

最新Source: Space-Track

元期: Sep 14, 2026, 14:54 UTC

1 10221U 77065AY  26257.62138114  .00005430  00000-0  43957-3 0  9992
2 10221  29.0260  84.9657 0283283 240.5679 116.6359 14.71222091485833

AllMySatでDELTA 1 DEBをリアルタイム追跡

Download on the App Store